BISONSAT

Last updated on Sun Jun 21 2026 00:03:50 GMT+0000 (Coordinated Universal Time)

1 40974U 15058L 26171.33107355 .00011284 00000+0 54486-3 0 9992 2 40974 64.7582 163.4794 0079422 45.9815 314.7817 15.16253024116095
UTC large
Height (km)
Speed (km/s)
/
Latitude / Longitude
Inclination (degrees)
Orbital Period (minutes)
Azimuth
Elevation
Range (km)
Doppler Factor

Next 0 passes for location: London (51.5072 / 0.1276)

No passes found over London.
BISONSAT